TimeEDT,TemperatureF,Dew PointF,Humidity,Sea Level PressureIn,VisibilityMPH,Wind Direction,Wind SpeedMPH,Gust SpeedMPH,PrecipitationIn,Events,Conditions,WindDirDegrees,DateUTC
12:00 AM,50.0,37.4,62,29.82,12.0,SSE,8.1,-,N/A,,Mostly Cloudy,160,2013-03-11 04:00:00
12:36 AM,-9999,-9999,N/A,-9999,12.0,SSW,9.2,-,N/A,Rain,Light Rain,210,2013-03-11 04:36:00
1:00 AM,51.8,37.4,58,29.83,12.0,SSW,6.9,-,N/A,Rain,Light Rain,200,2013-03-11 05:00:00
2:00 AM,51,38,50,29.81,12,South,10.4,,,Rain,Light Rain,190,2013-03-11 06:00:00
2:00 AM,51.8,37.4,58,29.81,12.0,South,8.1,-,N/A,Rain,Light Rain,190,2013-03-11 06:00:00
3:00 AM,53.6,39.2,58,29.80,12.0,SSW,10.4,-,N/A,,Overcast,200,2013-03-11 07:00:00
4:00 AM,51.8,44.6,76,29.78,10.0,SSW,23.0,29.9,N/A,Rain,Light Rain,200,2013-03-11 08:00:00
5:00 AM,50.0,46.4,87,29.76,6.0,South,19.6,-,N/A,Rain,Light Rain,190,2013-03-11 09:00:00
6:00 AM,51.8,46.4,82,29.75,12.0,South,21.9,27.6,N/A,,Overcast,180,2013-03-11 10:00:00
6:30 AM,-9999,-9999,N/A,-9999,15.0,South,18.4,24.2,N/A,,Overcast,180,2013-03-11 10:30:00
7:00 AM,50.0,46.4,87,29.76,15.0,South,17.3,-,N/A,,Overcast,190,2013-03-11 11:00:00
7:23 AM,-9999,-9999,N/A,-9999,15.0,South,11.5,18.4,N/A,Rain,Light Rain Showers,180,2013-03-11 11:23:00
8:00 AM,49,46,85,29.74,12,South,19.6,,,Rain,Light Rain Showers,180,2013-03-11 12:00:00
8:00 AM,48.2,46.4,93,29.74,12.0,South,15.0,21.9,N/A,Rain,Light Rain Showers,180,2013-03-11 12:00:00
8:46 AM,-9999,-9999,N/A,-9999,12.0,South,21.9,29.9,N/A,,Overcast,190,2013-03-11 12:46:00
9:00 AM,50.0,46.4,87,29.74,12.0,South,23.0,-,N/A,,Overcast,190,2013-03-11 13:00:00
10:00 AM,50.0,46.4,87,29.74,12.0,South,20.7,27.6,N/A,,Overcast,190,2013-03-11 14:00:00
11:00 AM,51.8,44.6,76,29.72,12.0,South,23.0,28.8,N/A,,Overcast,180,2013-03-11 15:00:00
12:00 PM,51.8,44.6,76,29.68,12.0,South,23.0,28.8,N/A,,Overcast,170,2013-03-11 16:00:00
12:55 PM,-9999,-9999,N/A,-9999,12.0,SSE,19.6,-,N/A,Rain,Light Rain Showers,160,2013-03-11 16:55:00
1:00 PM,51.8,42.8,71,29.65,12.0,South,17.3,-,N/A,Rain,Light Rain Showers,170,2013-03-11 17:00:00
1:53 PM,-9999,-9999,N/A,-9999,8.0,South,17.3,-,N/A,Rain,Light Rain,170,2013-03-11 17:53:00
2:00 PM,49,46,83,29.61,7,South,16.1,,,Rain,Light Rain,170,2013-03-11 18:00:00
2:00 PM,48.2,46.4,93,29.61,8.0,South,17.3,-,N/A,Rain,Light Rain,170,2013-03-11 18:00:00
3:00 PM,48.2,46.4,93,29.57,6.0,South,18.4,-,N/A,Rain,Light Rain,170,2013-03-11 19:00:00
3:06 PM,-9999,-9999,N/A,-9999,4.0,SSE,19.6,-,N/A,Rain,Rain,160,2013-03-11 19:06:00
3:26 PM,-9999,-9999,N/A,-9999,5.0,SSE,13.8,-,N/A,Rain,Light Rain,150,2013-03-11 19:26:00
4:00 PM,50.0,46.4,87,29.51,8.0,SSE,19.6,-,N/A,Rain,Light Rain,160,2013-03-11 20:00:00
5:00 PM,50.0,48.2,94,29.49,4.0,South,20.7,31.1,N/A,Rain,Light Rain,180,2013-03-11 21:00:00
5:07 PM,-9999,-9999,N/A,-9999,8.0,SW,21.9,33.4,N/A,Rain,Light Rain,220,2013-03-11 21:07:00
6:00 PM,50.0,46.4,87,29.53,15.0,WSW,17.3,24.2,N/A,Rain,Light Rain,250,2013-03-11 22:00:00
6:30 PM,-9999,-9999,N/A,-9999,15.0,West,17.3,25.3,N/A,,Mostly Cloudy,260,2013-03-11 22:30:00
7:00 PM,48.2,44.6,87,29.57,15.0,WSW,15.0,20.7,N/A,,Mostly Cloudy,240,2013-03-11 23:00:00
8:00 PM,46,38,63,29.60,15,SW,20.7,,,,Partly Cloudy,230,2013-03-12 00:00:00
8:00 PM,46.4,37.4,71,29.60,15.0,SW,19.6,-,N/A,,Mostly Cloudy,230,2013-03-12 00:00:00
9:00 PM,44.6,37.4,76,29.61,15.0,WSW,23.0,31.1,N/A,,Mostly Cloudy,240,2013-03-12 01:00:00
10:00 PM,42.8,33.8,70,29.65,15.0,WSW,21.9,29.9,N/A,,Mostly Cloudy,240,2013-03-12 02:00:00
11:00 PM,39.2,32.0,75,29.69,15.0,SW,23.0,28.8,N/A,,Overcast,230,2013-03-12 03:00:00
11:15 PM,-9999,-9999,N/A,-9999,15.0,WSW,25.3,31.1,N/A,,Light Drizzle,240,2013-03-12 03:15:00
11:45 PM,-9999,-9999,N/A,-9999,15.0,WSW,18.4,-,N/A,,Overcast,250,2013-03-12 03:45:00